User: anonymous   Login
Location: Bieujac
(44.5398°N, 0.1549°W)
Time: 09:53:52
(UTC+00:00)
Language:

FENGYUN 3A - Orbit

View from above orbital plane
View from above orbital plane
View from above satellite
View from above satellite

Ground track
Ground track

The orbit data is extracted from the following two-line orbital elements,

1 32958U 08026A   20026.17462764 -.00000006  00000-0  16751-4 0  9991
2 32958  98.3936  19.4225 0009595  38.3758 321.8102 14.18616824604516
Epoch (UTC): 26 January 2020 04:11:27
Eccentricity: 0.0009595
inclination: 98.3936°
perigee height: 823 km
apogee height: 837 km
right ascension of ascending node: 19.4225°
argument of perigee: 38.3758°
revolutions per day: 14.18616824
mean anomaly at epoch: 321.8102°
orbit number at epoch: 60451

The dashed part of the orbit path shows where the satellite is in the earth's shadow,  

DLR